This is the latest recevied weather packets stored in our database for station/object K5EAA-13. If no packets are shown the sender has not sent any weather packets the latest 10 day(s).
| Time | Temp. | Humidity | Pressure | Rain* | Wind** | Luminosity | Snow |
|---|---|---|---|---|---|---|---|
| 1787692460 | 37.78° C | 28% | 1013 hPa | 0 mm | - | 485 W/m² | - |
| 1787692160 | 38.33° C | 28% | 1013.2 hPa | 0 mm | - | 410 W/m² | - |
| 1787691860 | 38.33° C | 28% | 1013.2 hPa | 0 mm | - | 477 W/m² | - |
| 1787691558 | 38.33° C | 28% | 1013.1 hPa | 0 mm | - | 511 W/m² | - |
| 1787691257 | 38.33° C | 29% | 1013.3 hPa | 0 mm | - | 505 W/m² | - |
| 1787690953 | 38.89° C | 28% | 1013.4 hPa | 0 mm | - | 532 W/m² | - |
| 1787690647 | 38.89° C | 28% | 1013.1 hPa | 0 mm | - | 551 W/m² | - |
| 1787690342 | 38.89° C | 28% | 1013.3 hPa | 0 mm | - | 536 W/m² | - |
| 1787690039 | 38.33° C | 29% | 1013.5 hPa | 0 mm | - | 569 W/m² | - |
| 1787689735 | 38.33° C | 29% | 1013.3 hPa | 0 mm | - | 575 W/m² | - |
| 1787689430 | 38.33° C | 29% | 1013.4 hPa | 0 mm | - | 581 W/m² | - |
| 1787689129 | 38.89° C | 30% | 1013.5 hPa | 0 mm | - | 633 W/m² | - |
| 1787688826 | 38.33° C | 30% | 1013.5 hPa | 0 mm | - | 649 W/m² | - |
| 1787688521 | 38.33° C | 31% | 1013.5 hPa | 0 mm | - | 628 W/m² | - |
| 1787688221 | 38.33° C | 31% | 1013.6 hPa | 0 mm | - | 646 W/m² | - |
| 1787687916 | 38.33° C | 31% | 1013.6 hPa | 0 mm | - | 639 W/m² | - |
| 1787687611 | 37.78° C | 32% | 1013.7 hPa | 0 mm | - | 657 W/m² | - |
| 1787687307 | 37.22° C | 33% | 1013.7 hPa | 0 mm | - | 673 W/m² | - |
| 1787687003 | 37.78° C | 32% | 1013.8 hPa | 0 mm | - | 635 W/m² | - |
| 1787686699 | 37.78° C | 31% | 1013.8 hPa | 0 mm | - | 710 W/m² | - |
| 1787686399 | 37.78° C | 33% | 1014 hPa | 0 mm | - | 702 W/m² | - |
| 1787686095 | 37.78° C | 32% | 1014.2 hPa | 0 mm | - | 692 W/m² | - |
| 1787685789 | 37.78° C | 32% | 1014.2 hPa | 0 mm | - | 685 W/m² | - |
| 1787685485 | 37.78° C | 33% | 1014.2 hPa | 0 mm | - | 692 W/m² | - |
| 1787685179 | 37.78° C | 35% | 1014.3 hPa | 0 mm | - | 675 W/m² | - |
* Rain latest hour (hover to see other rain measurements)
** Current wind speed in m/s (hover to see current wind gust speed)